CPA3974 VHHH-VMMC

Flight info

Callsign CPA3974
Flight time 0h 21m
Altitude 16000
Route PECAN DCT CHALI
Aircraft B77W/H-SDE3GHIJ2J3J7M3P2RWXYZ/LB1D1

Departure

Time 2026-04-26 12:11
Airport Hong Kong International Airport (VHHH)

Arrival

Time 2026-04-26 12:32
Airport Macau International Airport (VMMC)
Time Latitude Longitude Altitude Speed Heading
2026-04-26 11:42 22.31077 113.90958 35 ft 0 kts 251°
2026-04-26 11:58 22.31081 113.90971 35 ft 2 kts 251°
2026-04-26 11:59 22.31086 113.90987 36 ft 2 kts 252°
2026-04-26 11:59 22.31089 113.91003 36 ft 2 kts 268°
2026-04-26 11:59 22.31088 113.91019 36 ft 2 kts 282°
2026-04-26 11:59 22.31084 113.91034 36 ft 2 kts 295°
2026-04-26 12:00 22.31076 113.91048 36 ft 2 kts 308°
2026-04-26 12:00 22.31066 113.91060 37 ft 2 kts 321°
2026-04-26 12:00 22.31054 113.91068 36 ft 2 kts 334°
2026-04-26 12:00 22.31040 113.91074 37 ft 2 kts 343°
2026-04-26 12:01 22.31026 113.91079 37 ft 1 kts 342°
2026-04-26 12:01 22.31024 113.91080 37 ft 0 kts 342°
2026-04-26 12:04 22.31025 113.91079 37 ft 0 kts 342°
2026-04-26 12:04 22.31072 113.91062 36 ft 12 kts 341°
2026-04-26 12:04 22.31153 113.91031 36 ft 10 kts 336°
2026-04-26 12:05 22.31187 113.90964 35 ft 12 kts 261°
2026-04-26 12:05 22.31156 113.90860 34 ft 16 kts 251°
2026-04-26 12:05 22.31119 113.90746 34 ft 15 kts 250°
2026-04-26 12:05 22.31081 113.90629 34 ft 18 kts 251°
2026-04-26 12:06 22.31036 113.90492 34 ft 15 kts 251°
2026-04-26 12:06 22.31007 113.90429 34 ft 8 kts 220°
2026-04-26 12:06 22.30949 113.90429 35 ft 9 kts 161°
2026-04-26 12:06 22.30870 113.90458 37 ft 15 kts 161°
2026-04-26 12:07 22.30750 113.90501 38 ft 21 kts 161°
2026-04-26 12:07 22.30594 113.90559 38 ft 24 kts 161°
2026-04-26 12:07 22.30431 113.90620 37 ft 25 kts 161°
2026-04-26 12:07 22.30274 113.90678 37 ft 14 kts 160°
2026-04-26 12:08 22.30204 113.90692 37 ft 10 kts 200°
2026-04-26 12:08 22.30160 113.90615 36 ft 14 kts 251°
2026-04-26 12:08 22.30118 113.90484 37 ft 22 kts 251°
2026-04-26 12:08 22.30064 113.90314 38 ft 24 kts 251°
2026-04-26 12:09 22.30011 113.90151 44 ft 22 kts 251°
2026-04-26 12:09 22.29955 113.89977 40 ft 25 kts 250°
2026-04-26 12:09 22.29898 113.89802 36 ft 15 kts 250°
2026-04-26 12:09 22.29835 113.89734 34 ft 14 kts 179°
2026-04-26 12:10 22.29731 113.89768 31 ft 15 kts 161°
2026-04-26 12:10 22.29648 113.89801 32 ft 7 kts 139°
2026-04-26 12:10 22.29641 113.89854 34 ft 8 kts 76°
2026-04-26 12:10 22.29691 113.90021 44 ft 51 kts 71°
2026-04-26 12:11 22.29917 113.90723 34 ft 145 kts 71°
2026-04-26 12:11 22.30318 113.91961 473 ft 187 kts 73°
2026-04-26 12:11 22.30728 113.93253 1743 ft 183 kts 73°
2026-04-26 12:11 22.31132 113.94509 2581 ft 186 kts 73°
2026-04-26 12:12 22.31576 113.95893 3141 ft 205 kts 72°
2026-04-26 12:12 22.32063 113.97403 3787 ft 222 kts 72°
2026-04-26 12:12 22.32585 113.99026 4523 ft 233 kts 71°
2026-04-26 12:12 22.32945 114.00143 4864 ft 236 kts 71°
2026-04-26 12:13 22.33645 114.02362 4995 ft 232 kts 75°
2026-04-26 12:13 22.33861 114.04112 5009 ft 232 kts 94°
2026-04-26 12:13 22.33471 114.05776 5003 ft 231 kts 116°
2026-04-26 12:13 22.32538 114.07185 5006 ft 231 kts 136°
2026-04-26 12:14 22.31194 114.08207 4988 ft 246 kts 155°
2026-04-26 12:14 22.29516 114.08759 5008 ft 252 kts 172°
2026-04-26 12:14 22.27732 114.08799 5013 ft 261 kts 183°
2026-04-26 12:14 22.25854 114.08707 5005 ft 271 kts 186°
2026-04-26 12:15 22.24055 114.08127 5009 ft 273 kts 205°
2026-04-26 12:15 22.22329 114.07235 5001 ft 272 kts 206°
2026-04-26 12:15 22.20602 114.06318 5005 ft 272 kts 207°
2026-04-26 12:15 22.18903 114.05415 5006 ft 272 kts 207°
2026-04-26 12:16 22.17216 114.04517 5000 ft 270 kts 207°
2026-04-26 12:16 22.15513 114.03610 5000 ft 272 kts 207°
2026-04-26 12:16 22.13789 114.02691 5004 ft 273 kts 207°
2026-04-26 12:16 22.12226 114.01522 4986 ft 275 kts 224°
2026-04-26 12:17 22.10874 114.00044 4880 ft 275 kts 226°
2026-04-26 12:17 22.09527 113.98528 4760 ft 275 kts 227°
2026-04-26 12:17 22.08204 113.97032 4637 ft 273 kts 227°
2026-04-26 12:17 22.06883 113.95538 4515 ft 273 kts 227°
2026-04-26 12:18 22.05576 113.94059 4396 ft 272 kts 227°
2026-04-26 12:18 22.04278 113.92583 4277 ft 272 kts 227°
2026-04-26 12:18 22.02963 113.91074 4162 ft 272 kts 227°
2026-04-26 12:18 22.01669 113.89580 4046 ft 271 kts 227°
2026-04-26 12:19 22.00381 113.88081 3927 ft 270 kts 227°
2026-04-26 12:19 21.99088 113.86576 3804 ft 271 kts 227°
2026-04-26 12:19 21.97810 113.85092 3683 ft 271 kts 227°
2026-04-26 12:19 21.96756 113.83400 3552 ft 272 kts 250°
2026-04-26 12:20 21.96504 113.81393 3421 ft 271 kts 272°
2026-04-26 12:20 21.96642 113.79362 3306 ft 272 kts 275°
2026-04-26 12:20 21.96807 113.77340 3186 ft 271 kts 275°
2026-04-26 12:20 21.96975 113.75299 3064 ft 269 kts 275°
2026-04-26 12:21 21.97137 113.73321 2986 ft 257 kts 275°
2026-04-26 12:21 21.97289 113.71462 2977 ft 243 kts 275°
2026-04-26 12:21 21.97432 113.69701 2913 ft 226 kts 275°
2026-04-26 12:21 21.97563 113.68076 2798 ft 212 kts 275°
2026-04-26 12:22 21.97788 113.66540 2818 ft 204 kts 292°
2026-04-26 12:22 21.98579 113.65289 2837 ft 202 kts 321°
2026-04-26 12:22 21.99863 113.64609 2909 ft 208 kts 342°
2026-04-26 12:22 22.01255 113.64143 2624 ft 207 kts 345°
2026-04-26 12:23 22.02626 113.63668 2347 ft 202 kts 344°
2026-04-26 12:23 22.03956 113.63180 2080 ft 198 kts 343°
2026-04-26 12:23 22.05237 113.62709 1818 ft 194 kts 344°
2026-04-26 12:23 22.06511 113.62242 1557 ft 190 kts 344°
2026-04-26 12:24 22.07773 113.61781 1296 ft 187 kts 344°
2026-04-26 12:24 22.09003 113.61329 1044 ft 185 kts 343°
2026-04-26 12:24 22.10171 113.60901 800 ft 167 kts 343°
2026-04-26 12:25 22.12295 113.60123 366 ft 154 kts 343°
2026-04-26 12:25 22.13300 113.59750 146 ft 151 kts 342°
2026-04-26 12:25 22.14288 113.59379 26 ft 143 kts 342°
2026-04-26 12:25 22.15172 113.59055 26 ft 128 kts 342°
2026-04-26 12:26 22.16077 113.58721 40 ft 148 kts 342°
2026-04-26 12:26 22.17056 113.58364 358 ft 150 kts 343°
2026-04-26 12:26 22.18121 113.58003 1034 ft 167 kts 344°
2026-04-26 12:26 22.19220 113.57671 1404 ft 159 kts
2026-04-26 12:27 22.20146 113.58172 1523 ft 165 kts 64°
2026-04-26 12:27 22.20328 113.59374 1739 ft 165 kts 106°
2026-04-26 12:27 22.19632 113.60340 1612 ft 170 kts 152°
2026-04-26 12:27 22.19301 113.60494 1570 ft 168 kts 160°
2026-04-26 12:28 22.18176 113.60885 1444 ft 165 kts 161°
2026-04-26 12:28 22.17068 113.61266 1476 ft 169 kts 162°
2026-04-26 12:28 22.15926 113.61612 1477 ft 169 kts 163°
2026-04-26 12:28 22.14785 113.61968 1417 ft 168 kts 162°
2026-04-26 12:29 22.13653 113.62331 1455 ft 168 kts 162°
2026-04-26 12:29 22.12514 113.62694 1398 ft 169 kts 161°
2026-04-26 12:29 22.10263 113.63427 1490 ft 167 kts 163°
2026-04-26 12:30 22.09075 113.63423 1568 ft 171 kts 204°
2026-04-26 12:30 22.08367 113.62451 1482 ft 168 kts 256°
2026-04-26 12:30 22.08621 113.61265 1160 ft 164 kts 315°
2026-04-26 12:31 22.10703 113.60630 491 ft 150 kts 352°
2026-04-26 12:31 22.11697 113.60317 331 ft 150 kts 344°
2026-04-26 12:31 22.12695 113.59960 222 ft 151 kts 343°
2026-04-26 12:31 22.13692 113.59597 88 ft 150 kts 342°
2026-04-26 12:32 22.14661 113.59244 25 ft 136 kts 338°
2026-04-26 12:32 22.15520 113.58926 24 ft 122 kts 340°
2026-04-26 12:32 22.16932 113.58421 4 ft 26 kts 347°
2026-04-26 12:33 22.17018 113.58397 5 ft 3 kts 348°